Date String (YYYY-MM-DD hh:mm:ss) UTC,Instrument flags,absolute air pressure of the measurement (hPa),sample flow rate (lpm),inlet stack bypass flow (lpm),air temperature of the measurement (°C),ambient temperature measured by the external sensor (°C),aerosol sample conditioner tube jacket temperature (°C),OPC LED temperature (°C),internal box temperature (°C),relative humidity of the measurement (%),span deviation,mass concentration of particles derived from Lorenz-Mie calculation of OPC scattering (μg/m³),mass concentration of particles derived from Lorenz-Mie calculation of OPC scattering (μg/m³),mass concentration of particles derived from Lorenz-Mie calculation of OPC scattering (μg/m³)
DateTimeUTC,F1_M11,P_M11,Q1_M11,Q2_M11,T1_M11,T2_M11,T3_M11,T4_M11,T5_M11,U1_M11,ZSPAN_M11,X0_M11,X2_M11,X1_M11
2024-01-31 14:00:00,SystemResetWarning,0831.3,5.00,000.00,021.5,020.4,000.0,029.8,022.8,10.8,0000.0,0005.73,0002.13,0001.80
2024-01-31 14:01:00,SystemResetWarning,0831.3,5.00,000.00,021.5,020.4,000.0,029.8,022.8,10.7,0000.0,0005.86,0002.23,0001.90
2024-01-31 14:02:00,SystemResetWarning,0831.3,5.00,000.00,021.5,020.4,000.0,029.8,022.8,10.6,0000.0,0005.94,0002.33,0001.97
2024-01-31 14:03:00,SystemResetWarning,0831.4,5.00,000.00,021.4,020.3,000.0,029.8,022.8,10.6,0000.0,0005.63,0002.38,0002.00
2024-01-31 14:04:00,SystemResetWarning,0831.3,5.00,000.00,021.4,020.3,000.0,029.8,022.8,10.6,0000.0,0005.75,0002.47,0002.06
2024-01-31 14:05:00,SystemResetWarning,0831.4,5.00,000.00,021.4,020.3,000.0,029.8,022.8,10.4,0000.0,0005.87,0002.57,0002.16
2024-01-31 14:06:00,SystemResetWarning,0831.3,5.00,000.00,021.4,020.3,000.0,029.8,022.8,10.4,0000.0,0005.46,0002.73,0002.29
2024-01-31 14:07:00,SystemResetWarning,0831.3,5.00,000.00,021.4,020.3,000.0,029.8,022.8,10.4,0000.0,0004.56,0002.85,0002.45
2024-01-31 14:08:00,SystemResetWarning,0831.3,5.01,000.00,021.4,020.3,000.0,029.8,022.8,10.5,0000.0,0005.08,0003.07,0002.67
2024-01-31 14:09:00,SystemResetWarning,0831.3,5.01,000.00,021.4,020.3,000.0,029.8,022.7,10.5,0000.0,0005.73,0003.20,0002.86
2024-01-31 14:10:00,SystemResetWarning,0831.3,5.00,000.00,021.4,020.3,000.0,029.8,022.8,10.5,0000.0,0006.23,0003.22,0002.90
2024-01-31 14:11:00,SystemResetWarning,0831.3,4.98,000.00,021.4,020.3,000.0,029.8,022.7,10.3,0000.0,0006.63,0003.22,0002.87
2024-01-31 14:12:00,SystemResetWarning,0831.3,4.99,000.00,021.4,020.3,000.0,029.7,022.7,10.2,0000.0,0007.88,0003.25,0002.88
2024-01-31 14:13:00,SystemResetWarning,0831.3,5.01,000.00,021.4,020.3,000.0,029.7,022.7,10.2,0000.0,0007.87,0003.28,0002.93
2024-01-31 14:14:00,SystemResetWarning,0831.3,5.00,000.00,021.4,020.3,000.0,029.7,022.7,10.6,0000.0,0008.74,0003.32,0003.00
2024-01-31 14:15:00,SystemResetWarning,0831.3,5.00,000.00,021.4,020.3,000.0,029.7,022.7,10.7,0000.0,0009.03,0003.32,0002.99
2024-01-31 14:16:00,SystemResetWarning,0831.4,5.00,000.00,021.4,020.3,000.0,029.7,022.7,10.7,0000.0,0009.28,0003.30,0002.93
2024-01-31 14:17:00,SystemResetWarning,0831.4,5.00,000.00,021.4,020.3,000.0,029.7,022.7,11.0,0000.0,0009.62,0003.23,0002.81
2024-01-31 14:18:00,SystemResetWarning,0831.4,5.00,000.00,021.4,020.3,000.0,029.7,022.7,11.0,0000.0,0009.48,0003.14,0002.66
2024-01-31 14:19:00,SystemResetWarning,0831.4,5.00,000.00,021.3,020.3,000.0,029.7,022.7,10.8,0000.0,0009.42,0003.10,0002.56
2024-01-31 14:20:00,SystemResetWarning,0831.4,5.00,000.00,021.3,020.3,000.0,029.7,022.7,10.7,0000.0,0009.19,0003.08,0002.51
2024-01-31 14:21:00,SystemResetWarning,0831.4,5.00,000.00,021.3,020.3,000.0,029.7,022.7,10.7,0000.0,0009.18,0003.12,0002.54
2024-01-31 14:22:00,SystemResetWarning,0831.4,5.00,000.00,021.3,020.3,000.0,029.7,022.7,10.7,0000.0,0009.16,0003.17,0002.64
2024-01-31 14:23:00,SystemResetWarning,0831.4,5.00,000.00,021.3,020.3,000.0,029.7,022.7,10.7,0000.0,0008.33,0003.23,0002.69
2024-01-31 14:24:00,SystemResetWarning,0831.4,5.00,000.00,021.3,020.3,000.0,029.7,022.7,10.7,0000.0,0008.34,0003.25,0002.71
2024-01-31 14:25:00,SystemResetWarning,0831.4,5.00,000.00,021.3,020.3,000.0,029.7,022.7,10.7,0000.0,0007.84,0003.24,0002.70
2024-01-31 14:26:00,SystemResetWarning,0831.4,5.00,000.00,021.3,020.3,000.0,029.7,022.7,10.6,0000.0,0007.53,0003.27,0002.74
2024-01-31 14:27:00,SystemResetWarning,0831.4,5.00,000.00,021.3,020.3,000.0,029.7,022.7,10.7,0000.0,0007.47,0003.29,0002.79
2024-01-31 14:28:00,SystemResetWarning,0831.5,5.00,000.00,021.3,020.3,000.0,029.7,022.7,11.0,0000.0,0006.51,0003.31,0002.83
2024-01-31 14:29:00,SystemResetWarning,0831.4,5.00,000.00,021.3,020.3,000.0,029.7,022.7,10.8,0000.0,0007.46,0003.34,0002.88
2024-01-31 14:30:00,SystemResetWarning,0831.5,5.00,000.00,021.3,020.3,000.0,029.7,022.7,10.7,0000.0,0007.52,0003.33,0002.91
2024-01-31 14:31:00,SystemResetWarning,0831.5,5.00,000.00,021.3,020.3,000.0,029.7,022.7,10.7,0000.0,0007.79,0003.32,0002.87
2024-01-31 14:32:00,SystemResetWarning,0831.5,5.01,000.00,021.3,020.3,000.0,029.7,022.7,10.7,0000.0,0007.76,0003.28,0002.80
2024-01-31 14:33:00,SystemResetWarning,0831.5,5.01,000.00,021.3,020.3,000.0,029.7,022.7,10.5,0000.0,0007.30,0003.21,0002.69
2024-01-31 14:34:00,SystemResetWarning,0831.5,4.99,000.00,021.3,020.3,000.0,029.7,022.7,10.4,0000.0,0007.27,0003.13,0002.59
2024-01-31 14:35:00,SystemResetWarning,0831.5,5.00,000.00,021.3,020.3,000.0,029.7,022.7,10.4,0000.0,0006.96,0002.98,0002.51
2024-01-31 14:36:00,SystemResetWarning,0831.5,4.99,000.00,021.3,020.3,000.0,029.6,022.7,10.4,0000.0,0006.80,0002.94,0002.46
2024-01-31 14:37:00,SystemResetWarning,0831.5,5.00,000.00,021.3,020.3,000.0,029.6,022.7,10.3,0000.0,0006.58,0002.85,0002.41
2024-01-31 14:38:00,SystemResetWarning,0831.6,5.01,000.00,021.3,020.3,000.0,029.6,022.7,10.4,0000.0,0007.01,0002.77,0002.31
2024-01-31 14:39:00,SystemResetWarning,0831.6,5.01,000.00,021.3,020.3,000.0,029.6,022.7,10.4,0000.0,0006.86,0002.66,0002.22
2024-01-31 14:40:00,SystemResetWarning,0831.6,5.01,000.00,021.3,020.3,000.0,029.7,022.7,10.3,0000.0,0007.82,0002.62,0002.17
2024-01-31 14:41:00,SystemResetWarning,0831.6,5.00,000.00,021.3,020.4,000.0,029.7,022.7,10.3,0000.0,0007.92,0002.64,0002.17
2024-01-31 14:42:00,SystemResetWarning,0831.6,5.00,000.00,021.3,020.4,000.0,029.7,022.7,10.2,0000.0,0007.55,0002.65,0002.22
2024-01-31 14:43:00,SystemResetWarning,0831.7,5.00,000.00,021.3,020.4,000.0,029.7,022.7,10.2,0000.0,0007.54,0002.73,0002.29
2024-01-31 14:44:00,SystemResetWarning,0831.7,5.00,000.00,021.3,020.4,000.0,029.7,022.8,10.5,0000.0,0007.72,0002.93,0002.43
2024-01-31 14:45:00,SystemResetWarning,0831.7,4.99,000.00,021.3,020.4,000.0,029.7,022.8,10.7,0000.0,0007.70,0003.05,0002.52
2024-01-31 14:46:00,SystemResetWarning,0831.7,4.99,000.00,021.3,020.4,000.0,029.7,022.7,10.9,0000.0,0007.75,0003.12,0002.58
2024-01-31 14:47:00,SystemResetWarning,0831.7,5.00,000.00,021.3,020.4,000.0,029.6,022.7,10.8,0000.0,0007.78,0003.17,0002.63
2024-01-31 14:48:00,SystemResetWarning,0832.0,5.00,000.00,021.3,020.4,000.0,029.7,022.7,10.5,0000.0,0007.82,0003.22,0002.71
2024-01-31 14:49:00,SystemResetWarning,0832.1,5.00,000.00,021.3,020.4,000.0,029.7,022.8,10.3,0000.0,0007.41,0003.25,0002.81
2024-01-31 14:50:00,SystemResetWarning,0832.3,5.01,000.00,021.3,020.4,000.0,029.7,022.8,10.4,0000.0,0007.55,0003.32,0002.92
2024-01-31 14:51:00,SystemResetWarning,0832.0,5.01,000.00,021.3,020.4,000.0,029.7,022.8,10.4,0000.0,0006.87,0003.38,0003.03
2024-01-31 14:52:00,SystemResetWarning,0832.2,5.01,000.00,021.3,020.5,000.0,029.7,022.8,10.3,0000.0,0006.47,0003.40,0003.06
2024-01-31 14:53:00,SystemResetWarning,0832.3,5.01,000.00,021.4,020.5,000.0,029.7,022.8,10.3,0000.0,0006.43,0003.40,0003.06
2024-01-31 14:54:00,SystemResetWarning,0832.1,4.99,000.00,021.4,020.5,000.0,029.7,022.8,10.3,0000.0,0006.43,0003.41,0003.07
2024-01-31 14:55:00,SystemResetWarning,0832.1,4.99,000.00,021.4,020.5,000.0,029.7,022.8,10.2,0000.0,0006.88,0003.38,0003.05
2024-01-31 14:56:00,SystemResetWarning,0832.0,5.00,000.00,021.4,020.5,000.0,029.7,022.8,10.1,0000.0,0008.07,0003.33,0002.99
2024-01-31 14:57:00,SystemResetWarning,0831.9,5.00,000.00,021.4,020.6,000.0,029.7,022.8,10.1,0000.0,0008.90,0003.31,0002.97
2024-01-31 14:58:00,SystemResetWarning,0831.8,5.01,000.00,021.4,020.6,000.0,029.7,022.9,10.1,0000.0,0008.83,0003.28,0002.95
2024-01-31 14:59:00,SystemResetWarning,0831.9,5.00,000.00,021.4,020.6,000.0,029.7,022.9,10.1,0000.0,0009.40,0003.25,0002.89
